Location: Leipzig
(51.3397°N, 12.3731°E)
Time: 18:48:20
(UTC+01:00)

ISS - Visible Passes

Search period start: 07 December 2019 00:00
Search period end: 17 December 2019 00:00
Orbit: 411 x 421 km, 51.6° (Epoch: 08 December)

Date Brightness Start Highest point End Pass type
(mag) Time Alt. Az. Time Alt. Az. Time Alt. Az.
07 Dec -3.0 17:38:12 10° W 17:41:29 51° SSW 17:44:04 15° SE visible
07 Dec -0.7 19:15:50 10° WSW 19:17:00 13° SW 19:17:00 13° SW visible
08 Dec -3.4 16:49:44 10° W 16:53:04 67° SSW 16:56:25 10° ESE visible
08 Dec -1.3 18:26:52 10° W 18:29:25 20° SW 18:31:05 15° S visible
09 Dec -1.8 17:38:10 10° W 17:41:07 28° SSW 17:44:04 10° SSE visible
10 Dec -2.3 16:49:35 10° W 16:52:45 39° SSW 16:55:55 10° SE visible
11 Dec -0.7 17:38:35 10° WSW 17:40:32 15° SW 17:42:30 10° S visible
12 Dec -0.9 16:49:38 10° W 16:52:15 21° SW 16:54:51 10° SSE visible
14 Dec 0.2 16:51:01 10° SW 16:51:33 10° SW 16:52:04 10° SW visible
